Flag for Israel Weather past 2 weeks in Herzliya, Israel

Now
59 °F

Clear.


Feels Like: 59 °F
Forecast: 57 / 67 °F
Wind: 5 mph from East

Location: Dov Airport

Current Time: Dec 26, 2014 at 11:40:05 PM

Latest Report: Dec 26, 2014 at 9:50 PM


Visibility: 10 mi

Pressure: 30.01 "Hg

Humidity: 82%

Dew point: 54 °F

Location of HerzliyaLocation

Historic Weather in Herzliya — Graph

°F

Herzliya temperature yesterday

Maximum temperature yesterday: 72 °F (at 11:50 AM)
Minimum temperature yesterday: 54 °F (at 6:50 AM)
Average temperature yesterday: 64 °F

Past Weeks' High & Low Weather Summary

 TemperatureHumidityPressure
High75 °F (Dec 12, 10:50 AM)88% (Dec 14, 5:50 AM)30.27 "Hg (Dec 14, 5:50 AM)
Low54 °F (Dec 25, 6:50 AM)29% (Dec 25, 1:50 PM)29.86 "Hg (Dec 12, 5:50 AM)
Average64 °F62%30.09 "Hg
* Reported Dec 11 9:50 PM — Dec 26 9:50 PM, Herzliya, Weather by CustomWeather, © 2014

Note: Actual official high and low records may vary slightly from our data, if they occured in-between our weather recording intervals... More about our weather records

Advertising

Herzliya weather history for previous 24 hours

 ConditionsComfort  
Time TempWeatherWind HumidityBarometerVisibility
9:50 PM
Dec 26
59 °FClear.5 mph82%30.01 "Hg10 mi
8:50 PM59 °FClear.5 mph82%29.98 "Hg10 mi
7:50 PM61 °FClear.5 mph77%29.98 "Hg10 mi
6:50 PM63 °FClear.1 mph73%29.98 "Hg10 mi
5:50 PM64 °FClear.5 mph68%29.98 "Hg10 mi
4:50 PM66 °FClear.7 mph68%29.98 "Hg10 mi
3:50 PM66 °FSunny.6 mph68%29.95 "Hg10 mi
2:50 PM68 °FSunny.6 mph64%29.95 "Hg10 mi
1:50 PM66 °FSunny.5 mph68%29.95 "Hg10 mi
12:50 PM66 °FSunny.7 mph64%29.95 "Hg10 mi
11:50 AM66 °FSunny.6 mph46%29.98 "Hg10 mi
10:50 AM68 °FSunny.2 mph38%30.01 "Hg10 mi
9:50 AM66 °FSunny.3 mph40%30.04 "Hg10 mi
8:50 AM63 °FSunny.No wind49%30.04 "Hg10 mi
7:50 AM57 °FSunny.5 mph59%30.01 "Hg10 mi
6:50 AM55 °FSunny.7 mph55%30.01 "Hg10 mi
5:50 AM55 °FClear.6 mph59%30.01 "Hg10 mi
Weather by CustomWeather, © 2014

See weather overviewHow to use our weather pages